WXM80 ListenWXM80 Stop

You find our weather info also at:

UK Metoffice

WeatherCloud

Weather Underground

Northeastern Weather Network

AWEKAS

Citizen Weather Observer Program (CWOP)

HAMweather, WeatherForYou, PWS Weather


Weather Underground History page Text

Daily Summary for September 28, 2017 Units:  English    Metric   Both
« Previous Day
Next Day »
Daily Weekly Monthly Yearly Custom
  High: Low: Average:
Temperature: 79.6 °F 62.3 °F 71.9 °F
Dew Point: 72.3 °F 48.8 °F 60.6 °F
Humidity: 98 % 46 % 70 %
Wind Speed: 10.5 mph 0.0 mph 4.5 mph
Wind Gust: 20.0 mph - -
Wind:- - SSE
Pressure: 29.84 in 29.58 in -
Precipitation: 0.00 in    
Historical Graphs
 
 
Tabular Data for September 28, 2017
Time Temperature Dew Point Pressure Wind Wind Speed Wind Gust Humidity Rainfall Rate (Hourly)
00:02 73.1 °F 72.2 °F 29.63 in Calm     97 % 0.00 in
00:07 73.1 °F 72.2 °F 29.63 in Calm     97 % 0.00 in
00:12 73.1 °F 72.2 °F 29.63 in Calm     97 % 0.00 in
00:17 73.1 °F 72.2 °F 29.62 in Calm     97 % 0.00 in
00:22 73.1 °F 72.2 °F 29.62 in Calm     97 % 0.00 in
00:27 73.2 °F 72.3 °F 29.62 in ENE 0.2 mph 2.0 mph 97 % 0.00 in
00:32 73.2 °F 72.3 °F 29.62 in Calm     97 % 0.00 in
00:37 73.1 °F 72.2 °F 29.63 in Calm     97 % 0.00 in
00:42 73.1 °F 72.2 °F 29.62 in Calm     97 % 0.00 in
00:47 73.1 °F 72.2 °F 29.62 in NE 0.7 mph 3.0 mph 97 % 0.00 in
00:52 73.2 °F 72.3 °F 29.62 in Calm     97 % 0.00 in
00:57 73.2 °F 72.3 °F 29.62 in Calm   1.2 mph 97 % 0.00 in
01:02 73.2 °F 72.3 °F 29.62 in NE 0.1 mph 1.2 mph 97 % 0.00 in
01:07 73.2 °F 72.3 °F 29.61 in Calm   1.2 mph 97 % 0.00 in
01:12 73.2 °F 72.3 °F 29.61 in NE 0.1 mph 1.2 mph 97 % 0.00 in
01:17 73.2 °F 72.3 °F 29.61 in Calm   1.2 mph 97 % 0.00 in
01:23 73.2 °F 72.3 °F 29.61 in NNE 2.0 mph 3.5 mph 97 % 0.00 in
01:28 73.1 °F 72.2 °F 29.60 in North 1.9 mph 4.6 mph 97 % 0.00 in
01:33 73.0 °F 72.1 °F 29.61 in North 0.5 mph 3.5 mph 97 % 0.00 in
01:38 73.0 °F 72.1 °F 29.60 in Calm   1.2 mph 97 % 0.00 in
01:43 72.9 °F 72.0 °F 29.60 in Calm     97 % 0.00 in
01:48 72.9 °F 72.0 °F 29.61 in NNE 0.5 mph 2.3 mph 97 % 0.00 in
01:53 72.8 °F 71.9 °F 29.61 in NNE 1.3 mph 3.5 mph 97 % 0.00 in
01:58 72.7 °F 71.8 °F 29.61 in NNE 2.7 mph 3.5 mph 97 % 0.00 in
02:03 72.7 °F 71.8 °F 29.61 in North 2.5 mph 4.6 mph 97 % 0.00 in
02:08 72.6 °F 71.7 °F 29.61 in NNE 2.3 mph 3.5 mph 97 % 0.00 in
02:13 72.5 °F 71.6 °F 29.62 in NE 2.7 mph 5.8 mph 97 % 0.00 in
02:18 72.4 °F 71.5 °F 29.61 in NNE 1.4 mph 3.5 mph 97 % 0.00 in
02:23 72.3 °F 71.4 °F 29.61 in ENE 0.2 mph 1.2 mph 97 % 0.00 in
02:28 72.3 °F 71.4 °F 29.61 in ENE 0.6 mph 2.3 mph 97 % 0.00 in
02:33 72.2 °F 71.3 °F 29.60 in Calm     97 % 0.00 in
02:35 72.2 °F 71.3 °F 29.60 in Calm     97 % 0.00 in
02:41 72.2 °F 71.3 °F 29.60 in Calm   1.0 mph 97 % 0.00 in
02:51 72.2 °F 71.3 °F 29.60 in Calm     97 % 0.00 in
02:56 72.2 °F 71.3 °F 29.59 in Calm   3.0 mph 97 % 0.00 in
03:01 72.2 °F 71.3 °F 29.59 in Calm     97 % 0.00 in
03:06 72.1 °F 71.2 °F 29.60 in North 2.4 mph 4.6 mph 97 % 0.00 in
03:11 72.1 °F 71.2 °F 29.60 in North 2.0 mph 3.5 mph 97 % 0.00 in
03:16 72.0 °F 71.1 °F 29.60 in North 0.9 mph 3.5 mph 97 % 0.00 in
03:21 72.0 °F 71.1 °F 29.60 in Calm     97 % 0.00 in
03:26 72.0 °F 71.1 °F 29.60 in NNE 0.3 mph 3.5 mph 97 % 0.00 in
03:31 72.0 °F 71.1 °F 29.60 in Calm     97 % 0.00 in
03:36 72.1 °F 71.2 °F 29.59 in Calm     97 % 0.00 in
03:41 72.1 °F 71.2 °F 29.59 in Calm     97 % 0.00 in
03:46 72.0 °F 71.1 °F 29.59 in Calm     97 % 0.00 in
03:51 72.1 °F 71.2 °F 29.59 in Calm     97 % 0.00 in
03:56 72.1 °F 71.2 °F 29.59 in Calm     97 % 0.00 in
04:01 72.2 °F 71.3 °F 29.58 in North 2.2 mph 4.0 mph 97 % 0.00 in
04:06 72.4 °F 71.8 °F 29.59 in North 3.7 mph 6.0 mph 98 % 0.00 in
04:11 72.6 °F 72.0 °F 29.59 in North 1.2 mph 3.5 mph 98 % 0.00 in
04:16 72.7 °F 72.1 °F 29.59 in NNW 2.3 mph 3.5 mph 98 % 0.00 in
04:21 72.8 °F 72.2 °F 29.59 in North 0.9 mph 3.0 mph 98 % 0.00 in
04:26 72.8 °F 72.2 °F 29.59 in NNE 2.9 mph 4.6 mph 98 % 0.00 in
04:31 72.9 °F 72.3 °F 29.59 in Calm   1.2 mph 98 % 0.00 in
04:36 72.9 °F 72.3 °F 29.59 in Calm     98 % 0.00 in
04:41 72.9 °F 72.3 °F 29.59 in Calm     98 % 0.00 in
04:46 72.9 °F 72.3 °F 29.59 in Calm     98 % 0.00 in
04:51 72.9 °F 72.3 °F 29.59 in NW 0.5 mph 2.3 mph 98 % 0.00 in
04:56 72.9 °F 72.3 °F 29.59 in North 0.2 mph 3.5 mph 98 % 0.00 in
05:01 72.8 °F 72.2 °F 29.59 in NW 0.1 mph 1.2 mph 98 % 0.00 in
05:06 72.8 °F 72.2 °F 29.58 in NNW 0.6 mph 3.5 mph 98 % 0.00 in
05:11 72.7 °F 71.8 °F 29.58 in NNE 0.4 mph 3.5 mph 97 % 0.00 in
05:16 72.7 °F 71.8 °F 29.58 in NNE 0.3 mph 2.3 mph 97 % 0.00 in
05:21 72.6 °F 72.0 °F 29.58 in NW 4.2 mph 5.8 mph 98 % 0.00 in
05:26 72.6 °F 72.0 °F 29.58 in North 2.9 mph 5.8 mph 98 % 0.00 in
05:31 72.6 °F 72.0 °F 29.59 in North 3.5 mph 8.1 mph 98 % 0.00 in
05:36 72.6 °F 72.0 °F 29.59 in NNE 5.1 mph 6.9 mph 98 % 0.00 in
05:41 72.7 °F 72.1 °F 29.59 in North 2.6 mph 4.6 mph 98 % 0.00 in
05:46 72.7 °F 72.1 °F 29.59 in NE 0.8 mph 3.5 mph 98 % 0.00 in
05:48 72.6 °F 72.0 °F 29.59 in North 1.1 mph 3.5 mph 98 % 0.00 in
05:53 72.6 °F 72.0 °F 29.59 in NNE 0.9 mph 4.0 mph 98 % 0.00 in
05:58 72.6 °F 72.0 °F 29.59 in North 0.9 mph 2.3 mph 98 % 0.00 in
06:03 72.5 °F 71.9 °F 29.59 in North 1.6 mph 3.5 mph 98 % 0.00 in
06:08 72.5 °F 71.9 °F 29.59 in Calm   3.5 mph 98 % 0.00 in
06:13 72.4 °F 71.8 °F 29.59 in NNE 0.7 mph 3.5 mph 98 % 0.00 in
06:18 72.4 °F 71.8 °F 29.59 in NNE 0.3 mph 2.3 mph 98 % 0.00 in
06:23 72.3 °F 71.4 °F 29.60 in North 0.5 mph 3.5 mph 97 % 0.00 in
06:28 72.3 °F 71.4 °F 29.60 in Calm   1.2 mph 97 % 0.00 in
06:33 72.2 °F 71.3 °F 29.60 in North 0.6 mph 2.3 mph 97 % 0.00 in
06:38 72.2 °F 71.3 °F 29.60 in North 0.6 mph 3.5 mph 97 % 0.00 in
06:43 72.1 °F 71.2 °F 29.60 in NNE 0.7 mph 6.0 mph 97 % 0.00 in
06:48 72.1 °F 71.2 °F 29.61 in NNE 0.4 mph 2.3 mph 97 % 0.00 in
06:53 72.0 °F 71.1 °F 29.61 in NNE 3.5 mph 5.8 mph 97 % 0.00 in
06:58 72.0 °F 71.1 °F 29.61 in North 1.4 mph 3.5 mph 97 % 0.00 in
07:03 71.9 °F 71.0 °F 29.61 in NNE 2.8 mph 8.1 mph 97 % 0.00 in
07:08 71.7 °F 70.8 °F 29.61 in NNE 3.8 mph 8.1 mph 97 % 0.00 in
07:13 71.4 °F 70.5 °F 29.61 in ENE 5.6 mph 8.1 mph 97 % 0.00 in
07:18 70.7 °F 69.5 °F 29.61 in NNE 6.3 mph 10.4 mph 96 % 0.00 in
07:23 70.2 °F 68.4 °F 29.62 in NE 6.7 mph 11.5 mph 94 % 0.00 in
07:28 69.6 °F 66.9 °F 29.62 in North 6.6 mph 11.5 mph 91 % 0.00 in
07:33 69.2 °F 65.8 °F 29.62 in NNE 7.0 mph 10.4 mph 89 % 0.00 in
07:39 69.1 °F 65.1 °F 29.62 in NNW 5.0 mph 8.1 mph 87 % 0.00 in
07:44 69.0 °F 63.6 °F 29.62 in North 7.6 mph 13.8 mph 83 % 0.00 in
07:49 68.9 °F 62.5 °F 29.62 in North 8.7 mph 13.8 mph 80 % 0.00 in
07:54 68.9 °F 62.8 °F 29.62 in NNE 7.0 mph 11.5 mph 81 % 0.00 in
07:59 68.9 °F 62.5 °F 29.62 in NNE 6.4 mph 9.2 mph 80 % 0.00 in
08:04 68.9 °F 62.1 °F 29.62 in NNE 6.0 mph 11.5 mph 79 % 0.00 in
08:09 69.0 °F 62.6 °F 29.62 in NNE 5.9 mph 10.4 mph 80 % 0.00 in
08:14 69.0 °F 62.2 °F 29.62 in North 5.5 mph 11.5 mph 79 % 0.00 in
08:19 69.1 °F 62.3 °F 29.62 in North 4.8 mph 9.2 mph 79 % 0.00 in
08:24 69.2 °F 62.4 °F 29.63 in North 3.9 mph 9.2 mph 79 % 0.00 in
08:29 69.3 °F 62.5 °F 29.63 in NNW 3.3 mph 8.1 mph 79 % 0.00 in
08:34 69.4 °F 61.9 °F 29.63 in North 5.4 mph 11.5 mph 77 % 0.00 in
08:35 69.4 °F 61.9 °F 29.63 in NNE 7.8 mph 10.4 mph 77 % 0.00 in
08:40 69.4 °F 61.9 °F 29.63 in North 7.8 mph 11.5 mph 77 % 0.00 in
08:45 69.4 °F 61.5 °F 29.63 in North 2.7 mph 6.9 mph 76 % 0.00 in
08:50 69.4 °F 61.5 °F 29.63 in North 2.9 mph 8.1 mph 76 % 0.00 in
08:55 69.4 °F 61.1 °F 29.63 in North 5.1 mph 8.1 mph 75 % 0.00 in
09:00 69.4 °F 60.8 °F 29.63 in NNW 3.8 mph 10.4 mph 74 % 0.00 in
09:05 69.3 °F 60.3 °F 29.64 in North 4.2 mph 11.5 mph 73 % 0.00 in
09:10 69.3 °F 59.5 °F 29.64 in North 7.3 mph 11.5 mph 71 % 0.00 in
09:15 69.2 °F 59.0 °F 29.64 in NNE 7.3 mph 12.0 mph 70 % 0.00 in
09:20 69.2 °F 59.4 °F 29.64 in NNW 6.6 mph 11.5 mph 71 % 0.00 in
09:26 69.2 °F 59.4 °F 29.64 in North 5.0 mph 12.0 mph 71 % 0.00 in
09:31 69.1 °F 58.9 °F 29.64 in North 5.4 mph 10.4 mph 70 % 0.00 in
09:36 69.1 °F 58.9 °F 29.64 in NNE 7.0 mph 15.0 mph 70 % 0.00 in
09:41 69.0 °F 58.4 °F 29.64 in North 7.0 mph 13.0 mph 69 % 0.00 in
09:46 69.0 °F 58.4 °F 29.64 in NNE 7.0 mph 14.0 mph 69 % 0.00 in
09:50 69.0 °F 58.8 °F 29.65 in NNE 5.0 mph 10.0 mph 70 % 0.00 in
09:56 69.0 °F 58.8 °F 29.64 in NNE 8.0 mph 13.0 mph 70 % 0.00 in
10:01 69.0 °F 58.4 °F 29.64 in North 3.5 mph 10.4 mph 69 % 0.00 in
10:06 69.1 °F 58.5 °F 29.65 in NNE 6.0 mph 10.4 mph 69 % 0.00 in
10:11 69.3 °F 58.7 °F 29.65 in NNW 4.4 mph 7.0 mph 69 % 0.00 in
10:16 69.6 °F 58.6 °F 29.64 in NNE 5.2 mph 8.1 mph 68 % 0.00 in
10:21 70.0 °F 58.5 °F 29.64 in NNE 6.1 mph 11.5 mph 67 % 0.00 in
10:26 70.2 °F 58.3 °F 29.64 in NNE 5.4 mph 10.4 mph 66 % 0.00 in
10:31 70.4 °F 58.1 °F 29.64 in NE 5.0 mph 9.2 mph 65 % 0.00 in
10:36 70.5 °F 58.6 °F 29.64 in North 6.8 mph 12.0 mph 66 % 0.00 in
10:41 70.6 °F 58.7 °F 29.64 in NNW 5.0 mph 9.2 mph 66 % 0.00 in
10:46 70.7 °F 57.9 °F 29.64 in NNW 9.6 mph 13.0 mph 64 % 0.00 in
10:47 70.7 °F 57.9 °F 29.64 in NNE 7.7 mph 13.8 mph 64 % 0.00 in
10:52 70.8 °F 58.4 °F 29.64 in NNE 2.2 mph 8.1 mph 65 % 0.00 in
10:57 70.9 °F 58.5 °F 29.64 in North 5.4 mph 9.2 mph 65 % 0.00 in
11:03 71.1 °F 57.9 °F 29.64 in NNE 6.7 mph 11.5 mph 63 % 0.00 in
11:08 71.4 °F 58.6 °F 29.63 in North 5.5 mph 11.5 mph 64 % 0.00 in
11:13 72.0 °F 58.7 °F 29.64 in North 4.3 mph 10.4 mph 63 % 0.00 in
11:18 72.8 °F 59.5 °F 29.63 in North 5.3 mph 11.5 mph 63 % 0.00 in
11:23 73.7 °F 59.9 °F 29.63 in WNW 2.4 mph 5.0 mph 62 % 0.00 in
11:28 74.5 °F 58.8 °F 29.63 in NNE 4.0 mph 11.5 mph 58 % 0.00 in
11:33 75.4 °F 59.1 °F 29.63 in NNW 4.2 mph 8.1 mph 57 % 0.00 in
11:38 75.9 °F 59.1 °F 29.63 in NNE 5.2 mph 9.0 mph 56 % 0.00 in
11:43 76.3 °F 58.4 °F 29.63 in SSW 7.0 mph 13.8 mph 54 % 0.00 in
11:48 76.7 °F 59.3 °F 29.63 in NW 6.2 mph 8.1 mph 55 % 0.00 in
11:50 76.9 °F 60.5 °F 29.63 in NE 3.9 mph 8.1 mph 57 % 0.00 in
11:55 77.3 °F 58.8 °F 29.63 in NNW 4.1 mph 6.9 mph 53 % 0.00 in
12:01 77.7 °F 59.7 °F 29.64 in ENE 7.3 mph 9.2 mph 54 % 0.00 in
12:06 78.1 °F 59.6 °F 29.64 in North 4.0 mph 6.9 mph 53 % 0.00 in
12:11 78.2 °F 58.0 °F 29.64 in North 1.4 mph 10.4 mph 50 % 0.00 in
12:16 78.4 °F 58.8 °F 29.63 in NNE 2.4 mph 9.2 mph 51 % 0.00 in
12:21 78.7 °F 59.6 °F 29.63 in NW 5.0 mph 9.2 mph 52 % 0.00 in
12:26 79.0 °F 60.9 °F 29.63 in North 4.3 mph 9.0 mph 54 % 0.00 in
12:31 79.3 °F 58.5 °F 29.64 in North 8.1 mph 11.5 mph 49 % 0.00 in
12:36 79.2 °F 59.5 °F 29.64 in NNW 5.1 mph 11.5 mph 51 % 0.00 in
12:41 79.3 °F 59.0 °F 29.63 in NE 4.2 mph 8.1 mph 50 % 0.00 in
12:46 79.4 °F 58.6 °F 29.64 in NNE 5.6 mph 11.5 mph 49 % 0.00 in
12:51 79.6 °F 58.8 °F 29.63 in North 6.9 mph 10.0 mph 49 % 0.00 in
12:56 79.5 °F 58.1 °F 29.63 in NE 4.6 mph 11.5 mph 48 % 0.00 in
13:01 79.6 °F 59.9 °F 29.63 in NNE 6.3 mph 9.2 mph 51 % 0.00 in
13:07 79.5 °F 58.7 °F 29.63 in NNE 6.7 mph 11.5 mph 49 % 0.00 in
13:12 79.2 °F 57.2 °F 29.63 in WNW 5.0 mph 11.5 mph 47 % 0.00 in
13:15 79.1 °F 58.3 °F 29.63 in NNE 5.4 mph 10.4 mph 49 % 0.00 in
13:20 79.2 °F 58.4 °F 29.63 in WNW 5.4 mph 9.2 mph 49 % 0.00 in
13:25 79.3 °F 58.5 °F 29.62 in NW 5.1 mph 10.4 mph 49 % 0.00 in
13:30 79.3 °F 57.9 °F 29.62 in North 4.6 mph 10.4 mph 48 % 0.00 in
13:35 79.2 °F 57.8 °F 29.62 in NE 5.5 mph 10.4 mph 48 % 0.00 in
13:40 79.2 °F 57.8 °F 29.63 in NW 6.9 mph 12.0 mph 48 % 0.00 in
13:45 79.0 °F 57.0 °F 29.62 in North 6.5 mph 9.0 mph 47 % 0.00 in
13:50 78.8 °F 56.3 °F 29.62 in NNW 6.1 mph 10.4 mph 46 % 0.00 in
13:55 78.8 °F 58.0 °F 29.62 in North 5.6 mph 9.2 mph 49 % 0.00 in
14:01 78.9 °F 58.7 °F 29.62 in North 3.3 mph 5.8 mph 50 % 0.00 in
14:06 79.1 °F 58.9 °F 29.62 in NE 7.2 mph 13.0 mph 50 % 0.00 in
14:11 79.2 °F 58.4 °F 29.62 in NNW 5.0 mph 16.1 mph 49 % 0.00 in
14:16 79.2 °F 59.0 °F 29.62 in North 4.5 mph 8.1 mph 50 % 0.00 in
14:21 79.2 °F 57.8 °F 29.62 in NNW 8.9 mph 12.7 mph 48 % 0.00 in
14:26 79.3 °F 58.5 °F 29.62 in NNE 6.6 mph 9.2 mph 49 % 0.00 in
14:31 79.2 °F 57.8 °F 29.62 in North 6.4 mph 9.2 mph 48 % 0.00 in
14:36 79.3 °F 59.0 °F 29.62 in NNW 6.7 mph 12.7 mph 50 % 0.00 in
14:41 79.2 °F 57.8 °F 29.62 in North 7.0 mph 11.5 mph 48 % 0.00 in
14:46 79.1 °F 58.3 °F 29.62 in NNW 3.8 mph 11.5 mph 49 % 0.00 in
14:51 79.0 °F 57.6 °F 29.62 in North 5.9 mph 9.2 mph 48 % 0.00 in
14:56 78.9 °F 57.5 °F 29.62 in NNW 8.2 mph 10.0 mph 48 % 0.00 in
15:01 78.8 °F 57.4 °F 29.62 in North 3.7 mph 12.7 mph 48 % 0.00 in
15:06 78.7 °F 57.4 °F 29.62 in North 7.3 mph 12.7 mph 48 % 0.00 in
15:11 78.4 °F 56.5 °F 29.62 in North 9.7 mph 17.3 mph 47 % 0.00 in
15:16 78.0 °F 56.1 °F 29.63 in North 7.4 mph 11.5 mph 47 % 0.00 in
15:21 77.7 °F 55.9 °F 29.63 in NE 6.8 mph 13.8 mph 47 % 0.00 in
15:26 77.4 °F 56.7 °F 29.63 in North 8.0 mph 13.8 mph 49 % 0.00 in
15:31 77.1 °F 55.3 °F 29.63 in NNE 7.5 mph 12.7 mph 47 % 0.00 in
15:36 77.0 °F 57.5 °F 29.63 in North 7.0 mph 12.7 mph 51 % 0.00 in
15:41 76.9 °F 55.7 °F 29.63 in North 9.5 mph 12.7 mph 48 % 0.00 in
15:47 76.7 °F 56.1 °F 29.64 in North 6.9 mph 11.5 mph 49 % 0.00 in
15:52 76.3 °F 55.7 °F 29.63 in NNE 4.5 mph 10.4 mph 49 % 0.00 in
15:57 76.2 °F 56.2 °F 29.64 in NNW 4.9 mph 6.9 mph 50 % 0.00 in
16:02 76.3 °F 55.7 °F 29.64 in NNE 4.9 mph 9.2 mph 49 % 0.00 in
16:07 76.2 °F 57.3 °F 29.64 in North 3.4 mph 9.2 mph 52 % 0.00 in
16:12 76.1 °F 56.1 °F 29.64 in North 4.7 mph 11.5 mph 50 % 0.00 in
16:17 75.9 °F 56.5 °F 29.64 in NNE 5.0 mph 9.2 mph 51 % 0.00 in
16:22 75.6 °F 56.2 °F 29.65 in NNE 6.0 mph 11.5 mph 51 % 0.00 in
16:27 75.3 °F 55.9 °F 29.65 in North 8.4 mph 13.8 mph 51 % 0.00 in
16:32 75.0 °F 55.1 °F 29.65 in NNE 6.8 mph 10.4 mph 50 % 0.00 in
16:37 74.8 °F 56.0 °F 29.65 in North 8.7 mph 13.8 mph 52 % 0.00 in
16:42 74.7 °F 55.9 °F 29.65 in NNW 5.7 mph 11.5 mph 52 % 0.00 in
16:47 74.5 °F 55.2 °F 29.65 in NNE 4.3 mph 10.4 mph 51 % 0.00 in
16:52 74.3 °F 55.0 °F 29.65 in NNE 10.5 mph 15.0 mph 51 % 0.00 in
16:57 74.0 °F 54.2 °F 29.65 in NNW 7.3 mph 9.2 mph 50 % 0.00 in
17:02 73.8 °F 55.1 °F 29.65 in NNE 8.5 mph 13.0 mph 52 % 0.00 in
17:07 73.6 °F 54.4 °F 29.66 in NE 8.2 mph 11.5 mph 51 % 0.00 in
17:12 73.4 °F 54.7 °F 29.66 in NNE 7.3 mph 12.7 mph 52 % 0.00 in
17:17 73.3 °F 54.6 °F 29.66 in North 6.9 mph 10.4 mph 52 % 0.00 in
17:22 73.1 °F 54.9 °F 29.66 in NNE 8.8 mph 12.0 mph 53 % 0.00 in
17:27 73.0 °F 54.3 °F 29.67 in NNE 8.4 mph 12.7 mph 52 % 0.00 in
17:32 72.8 °F 54.7 °F 29.67 in North 6.4 mph 10.4 mph 53 % 0.00 in
17:37 72.7 °F 54.6 °F 29.67 in NNE 5.8 mph 13.8 mph 53 % 0.00 in
17:39 72.7 °F 55.1 °F 29.67 in North 6.7 mph 11.5 mph 54 % 0.00 in
17:44 72.6 °F 55.0 °F 29.67 in North 5.9 mph 10.4 mph 54 % 0.00 in
17:49 72.5 °F 53.9 °F 29.68 in NNE 5.5 mph 8.1 mph 52 % 0.00 in
17:54 72.3 °F 54.7 °F 29.67 in NNE 6.0 mph 9.2 mph 54 % 0.00 in
17:59 72.2 °F 54.1 °F 29.68 in North 5.3 mph 9.2 mph 53 % 0.00 in
18:04 72.0 °F 53.9 °F 29.68 in NNE 5.3 mph 11.5 mph 53 % 0.00 in
18:09 71.9 °F 54.3 °F 29.68 in NNW 8.1 mph 15.0 mph 54 % 0.00 in
18:14 71.7 °F 54.2 °F 29.69 in NNE 7.5 mph 15.0 mph 54 % 0.00 in
18:19 71.5 °F 53.5 °F 29.68 in NE 10.3 mph 17.3 mph 53 % 0.00 in
18:23 71.3 °F 52.8 °F 29.69 in NNW 6.1 mph 11.5 mph 52 % 0.00 in
18:28 71.2 °F 53.2 °F 29.69 in NNE 9.9 mph 16.1 mph 53 % 0.00 in
18:34 71.0 °F 52.5 °F 29.69 in North 8.3 mph 18.4 mph 52 % 0.00 in
18:39 70.8 °F 52.3 °F 29.69 in NE 6.6 mph 15.0 mph 52 % 0.00 in
18:49 70.4 °F 51.4 °F 29.70 in North 7.0 mph 13.8 mph 51 % 0.00 in
18:54 70.2 °F 52.3 °F 29.71 in NNW 10.5 mph 16.1 mph 53 % 0.00 in
18:59 70.1 °F 51.1 °F 29.71 in NNW 8.8 mph 17.3 mph 51 % 0.00 in
19:04 69.9 °F 50.9 °F 29.72 in ENE 7.1 mph 18.4 mph 51 % 0.00 in
19:09 69.7 °F 50.8 °F 29.72 in North 9.1 mph 17.0 mph 51 % 0.00 in
19:14 69.5 °F 51.1 °F 29.71 in NNE 3.3 mph 6.9 mph 52 % 0.00 in
19:19 69.4 °F 52.0 °F 29.72 in NW 5.1 mph 14.0 mph 54 % 0.00 in
19:24 69.3 °F 51.4 °F 29.73 in North 4.7 mph 12.0 mph 53 % 0.00 in
19:29 69.1 °F 51.2 °F 29.73 in NNE 6.6 mph 10.4 mph 53 % 0.00 in
19:34 68.9 °F 51.6 °F 29.72 in South 4.7 mph 11.5 mph 54 % 0.00 in
19:39 68.8 °F 51.5 °F 29.73 in NNE 5.8 mph 12.0 mph 54 % 0.00 in
19:45 68.6 °F 50.8 °F 29.73 in NE 6.4 mph 9.2 mph 53 % 0.00 in
19:50 68.5 °F 50.7 °F 29.74 in NE 7.6 mph 11.5 mph 53 % 0.00 in
19:55 68.4 °F 52.1 °F 29.74 in NE 3.8 mph 8.1 mph 56 % 0.00 in
20:00 68.2 °F 50.9 °F 29.74 in North 5.8 mph 9.2 mph 54 % 0.00 in
20:05 68.1 °F 50.8 °F 29.74 in NE 5.6 mph 11.5 mph 54 % 0.00 in
20:10 68.1 °F 50.8 °F 29.74 in North 3.7 mph 11.5 mph 54 % 0.00 in
20:15 67.9 °F 50.6 °F 29.75 in North 8.8 mph 19.6 mph 54 % 0.00 in
20:20 67.9 °F 51.1 °F 29.75 in North 6.1 mph 15.0 mph 55 % 0.00 in
20:25 67.8 °F 51.0 °F 29.75 in NNW 6.9 mph 11.5 mph 55 % 0.00 in
20:30 67.7 °F 50.9 °F 29.75 in NNE 6.6 mph 11.5 mph 55 % 0.00 in
20:35 67.6 °F 50.4 °F 29.76 in North 8.1 mph 14.0 mph 54 % 0.00 in
20:40 67.5 °F 50.8 °F 29.76 in NNW 4.0 mph 8.1 mph 55 % 0.00 in
20:45 67.4 °F 50.7 °F 29.77 in NNE 4.6 mph 9.2 mph 55 % 0.00 in
20:50 67.3 °F 51.1 °F 29.77 in North 7.6 mph 17.3 mph 56 % 0.00 in
20:55 67.2 °F 51.4 °F 29.77 in NNW 3.7 mph 9.2 mph 57 % 0.00 in
21:00 67.1 °F 50.9 °F 29.77 in NNE 4.2 mph 13.0 mph 56 % 0.00 in
21:05 66.9 °F 50.7 °F 29.77 in North 2.8 mph 9.2 mph 56 % 0.00 in
21:10 66.8 °F 51.1 °F 29.77 in NNE 5.5 mph 10.4 mph 57 % 0.00 in
21:15 66.6 °F 50.9 °F 29.77 in NNE 3.5 mph 8.1 mph 57 % 0.00 in
21:20 66.5 °F 51.7 °F 29.78 in North 4.2 mph 8.1 mph 59 % 0.00 in
21:25 66.3 °F 51.5 °F 29.78 in NNE 6.0 mph 8.1 mph 59 % 0.00 in
21:30 66.2 °F 51.9 °F 29.78 in NNW 5.3 mph 8.1 mph 60 % 0.00 in
21:35 66.1 °F 51.4 °F 29.78 in NNE 7.5 mph 11.5 mph 59 % 0.00 in
21:40 66.0 °F 51.3 °F 29.78 in NW 4.9 mph 11.5 mph 59 % 0.00 in
21:45 65.9 °F 51.2 °F 29.78 in NNE 3.6 mph 6.0 mph 59 % 0.00 in
21:50 65.7 °F 51.4 °F 29.79 in North 3.5 mph 10.4 mph 60 % 0.00 in
21:55 65.6 °F 50.9 °F 29.80 in WNW 5.3 mph 11.5 mph 59 % 0.00 in
22:00 65.4 °F 50.7 °F 29.79 in WNW 6.0 mph 10.4 mph 59 % 0.00 in
22:05 65.2 °F 50.0 °F 29.80 in North 8.2 mph 13.8 mph 58 % 0.00 in
22:10 65.0 °F 49.9 °F 29.80 in North 7.2 mph 11.5 mph 58 % 0.00 in
22:15 64.9 °F 49.8 °F 29.80 in North 4.1 mph 10.4 mph 58 % 0.00 in
22:21 64.9 °F 50.2 °F 29.80 in North 7.0 mph 13.0 mph 59 % 0.00 in
22:31 64.6 °F 50.4 °F 29.80 in NNE 6.9 mph 6.9 mph 60 % 0.00 in
22:35 64.5 °F 51.2 °F 29.81 in NNE 4.7 mph 9.2 mph 62 % 0.00 in
22:40 64.4 °F 50.7 °F 29.81 in NNW 4.0 mph 11.5 mph 61 % 0.00 in
22:41 64.4 °F 50.7 °F 29.81 in NW 3.6 mph 11.5 mph 61 % 0.00 in
22:46 64.3 °F 50.1 °F 29.81 in NNE 8.8 mph 16.1 mph 60 % 0.00 in
22:51 64.1 °F 49.9 °F 29.81 in North 7.5 mph 17.3 mph 60 % 0.00 in
22:56 64.0 °F 49.4 °F 29.82 in NNE 9.9 mph 16.1 mph 59 % 0.00 in
23:01 63.9 °F 50.2 °F 29.82 in NNW 6.1 mph 12.7 mph 61 % 0.00 in
23:06 63.7 °F 49.5 °F 29.82 in North 6.8 mph 18.4 mph 60 % 0.00 in
23:11 63.6 °F 49.9 °F 29.82 in NNW 5.5 mph 8.1 mph 61 % 0.00 in
23:17 63.4 °F 49.7 °F 29.83 in North 7.8 mph 16.1 mph 61 % 0.00 in
23:21 63.4 °F 49.7 °F 29.83 in NNE 8.0 mph 15.0 mph 61 % 0.00 in
23:26 63.2 °F 49.5 °F 29.83 in NNW 5.8 mph 13.8 mph 61 % 0.00 in
23:27 63.2 °F 49.5 °F 29.83 in NNW 8.1 mph 12.7 mph 61 % 0.00 in
23:31 63.1 °F 49.0 °F 29.83 in North 10.1 mph 15.0 mph 60 % 0.00 in
23:36 62.9 °F 48.8 °F 29.83 in North 7.2 mph 12.7 mph 60 % 0.00 in
23:38 62.9 °F 49.2 °F 29.83 in NNW 7.5 mph 11.5 mph 61 % 0.00 in
23:43 62.7 °F 49.5 °F 29.84 in NNE 3.8 mph 8.1 mph 62 % 0.00 in
23:48 62.6 °F 49.4 °F 29.83 in North 10.2 mph 20.0 mph 62 % 0.00 in
23:53 62.4 °F 49.6 °F 29.84 in NE 6.5 mph 9.2 mph 63 % 0.00 in
23:59 62.3 °F 49.5 °F 29.84 in North 3.7 mph 10.0 mph 63 % 0.00 in
Crab Meadow Weather
Compliments of Weather Underground - 3 mb

Script developed by  Jim McMurry - jmcmurry@mwt.net Adapted for the template by  Wim van der Kuil - Leuven-Template.eu

Weather Terms: Wind Chill Advisory - Dangerous wind chills of -20°F to -30°F.